Theta_e
314 313 313 312 310 308 307 305 305 306 305 305 305 305 304 303 303 303 304 304 304 304 304 305 306 306 306 306 306 306 306 306 306 306 306 305 305 305 304 305 304 305 305 305 304 303 304 307 310 313 313 315 313 310 313 316 315 314 314 313 312 311 311 311 311 312 311 308 306 305 305 305 306 305 304 304 304 304 304 303 303 303 303 303 304
315 314 314 313 310 309 307 305 304 305 306 305 305 306 304 303 303 303 304 304 304 304 304 304 305 305 305 305 305 305 306 306 306 306 306 305 305 305 304 304 304 304 305 304 304 303 304 306 309 313 313 314 314 312 313 316 314 313 313 312 312 311 310 311 312 312 311 308 307 306 307 306 305 304 304 304 303 303 303 303 303 303 303 303 303
315 315 314 313 311 309 308 306 304 304 305 305 305 305 304 303 303 303 303 303 304 304 304 304 304 305 305 305 305 305 305 305 306 306 306 305 305 305 304 304 304 304 304 304 303 303 304 305 306 311 313 314 314 313 314 315 314 313 312 312 312 310 310 310 311 311 310 309 308 308 308 307 305 304 304 304 303 303 302 302 302 302 303 302 303
316 315 315 313 312 310 309 307 305 304 305 305 305 305 303 302 302 302 302 302 303 303 303 303 303 304 304 304 304 304 305 305 305 305 305 305 305 305 304 304 304 304 304 304 303 302 302 303 302 306 312 314 314 313 313 314 313 313 312 311 311 310 309 309 310 310 309 309 309 308 309 308 305 305 304 304 303 302 302 302 302 302 302 302 302
316 315 315 314 313 312 309 308 306 305 304 304 305 304 303 302 302 302 302 302 302 303 303 303 303 303 303 303 304 304 304 304 304 304 305 305 305 305 304 304 304 303 303 303 303 302 300 300 300 304 310 312 312 313 313 313 312 312 311 311 311 311 309 309 310 310 310 309 309 309 309 307 306 306 305 303 302 302 301 301 301 301 301 301 302
317 316 316 314 313 312 311 309 307 306 304 304 304 304 303 302 302 302 302 302 302 302 303 303 303 303 303 303 303 303 303 304 304 304 304 304 304 305 304 304 304 303 303 303 302 301 299 299 299 301 306 309 310 312 312 312 311 311 311 310 310 310 309 309 310 310 309 308 308 309 308 307 306 306 305 304 303 302 302 301 301 301 301 301 301
318 317 317 315 313 312 311 310 308 306 305 304 304 304 303 302 302 302 301 301 301 302 302 303 302 302 302 302 303 303 303 303 303 303 303 303 304 304 304 304 304 303 303 303 302 300 299 299 298 299 301 303 305 307 309 311 310 310 310 309 309 309 308 308 308 307 307 307 306 307 306 306 306 305 305 304 303 303 302 301 301 301 301 301 301
320 319 318 317 314 312 312 311 309 308 306 304 303 303 303 302 302 301 301 301 301 301 301 302 302 302 302 302 302 302 302 302 302 302 303 303 303 303 304 304 303 303 303 303 302 300 299 298 298 298 299 300 302 302 306 309 310 309 309 309 308 308 307 307 307 306 306 305 304 304 304 304 303 303 303 303 302 301 301 300 300 300 300 300 300
321 320 320 319 316 314 312 311 310 309 307 305 303 303 303 302 301 301 301 301 301 300 301 301 302 302 302 302 302 302 302 302 302 302 302 302 303 303 303 303 303 303 303 303 302 300 299 298 297 297 297 299 300 299 301 306 308 308 308 308 307 307 306 306 306 305 304 302 302 301 301 301 301 301 300 300 300 299 299 299 299 299 299 299 300
322 321 321 320 318 316 314 312 311 310 308 306 304 302 302 302 301 301 301 300 300 300 300 301 301 302 302 302 301 301 301 302 302 302 302 302 302 302 302 303 303 303 303 302 301 300 299 298 297 297 297 297 297 297 298 301 304 306 307 307 307 306 305 303 303 303 302 301 301 299 299 299 299 299 299 299 299 299 299 299 299 299 300 300 300
322 322 321 320 319 318 316 314 313 311 310 308 305 302 301 302 301 301 300 300 300 300 300 300 301 301 301 301 301 301 301 301 301 301 301 302 302 302 302 302 302 302 302 302 301 300 299 298 297 296 296 296 296 296 297 298 299 302 305 307 307 306 303 302 301 301 301 300 299 299 298 298 298 298 299 299 299 299 299 299 299 299 299 300 299
322 322 321 321 320 319 318 317 315 313 312 310 307 304 302 301 301 301 300 300 300 299 299 299 300 300 301 301 301 301 301 301 301 301 301 301 301 301 301 302 302 302 301 301 301 300 299 298 297 296 296 295 295 295 295 296 297 298 302 306 307 305 303 302 301 300 299 299 299 298 298 298 298 298 298 299 299 298 298 298 298 299 299 299 299
319 320 321 321 320 320 320 319 317 316 314 312 310 307 303 301 301 301 300 300 299 299 299 299 299 300 300 300 300 300 300 300 300 300 301 301 301 301 301 301 301 301 301 301 300 299 299 298 297 296 295 295 295 295 295 294 295 295 298 305 307 305 303 301 300 299 298 297 297 298 298 298 298 298 298 298 298 298 297 298 298 298 298 298 299
315 317 319 320 320 320 320 319 319 318 317 314 312 310 306 302 300 300 300 299 299 299 299 299 299 299 300 300 300 300 299 300 300 300 300 300 300 301 301 301 301 301 301 301 300 299 299 298 298 296 295 295 295 295 295 294 294 294 296 302 306 305 303 301 299 297 296 296 296 296 297 297 297 297 297 297 297 297 297 297 298 298 298 298 298
313 314 315 316 317 318 319 319 319 319 318 317 315 312 309 305 302 300 299 299 298 298 298 299 299 299 299 299 299 299 299 299 300 300 300 300 300 300 300 300 301 301 300 300 299 299 299 298 297 296 295 296 296 295 295 294 294 293 294 298 301 301 300 299 297 296 295 295 295 295 296 296 296 297 297 297 297 297 297 297 297 298 298 298 298
310 311 311 313 314 315 316 317 318 318 319 318 317 315 312 309 305 302 300 299 298 298 298 298 298 298 299 298 298 298 298 299 300 299 299 300 300 300 300 300 300 300 300 300 299 299 298 298 297 296 296 296 296 295 295 295 294 294 294 295 297 297 297 296 295 295 294 294 294 295 295 296 296 296 297 297 297 297 297 297 297 298 298 298 298
306 307 308 309 310 312 313 315 316 316 317 318 318 317 316 313 310 306 302 300 298 298 298 298 298 298 298 298 298 298 299 300 300 299 299 299 300 300 300 300 300 300 300 300 300 299 298 297 296 296 296 296 296 295 295 295 295 294 294 294 294 295 295 295 294 294 294 294 294 294 295 296 296 296 296 296 296 296 296 297 297 297 297 297 297
304 305 305 305 306 308 310 312 313 314 315 316 316 317 317 316 314 310 305 302 299 298 297 298 298 297 298 298 298 299 299 300 300 299 299 299 300 300 300 300 300 300 300 300 300 299 297 296 296 295 295 296 296 296 295 295 295 295 294 294 294 294 294 293 293 293 294 294 294 294 295 295 296 296 296 296 296 296 296 297 297 297 297 297 297
304 304 304 304 304 305 306 308 310 311 312 313 314 315 315 316 315 313 309 304 300 298 297 298 298 297 297 298 298 298 299 299 300 300 300 300 300 300 300 300 300 300 300 300 300 299 298 296 295 295 294 295 296 296 296 295 295 295 295 294 294 294 293 293 293 293 294 294 294 294 294 295 296 296 295 295 296 296 296 296 296 297 297 297 297
303 303 303 304 304 303 304 304 306 308 309 310 311 312 313 313 314 313 310 306 301 298 298 297 297 297 297 297 298 298 298 299 299 300 300 300 300 300 301 300 300 300 300 300 300 299 298 297 295 294 294 294 295 296 296 295 295 295 295 295 294 294 293 293 293 294 294 294 294 294 294 295 295 295 295 295 295 295 296 296 296 296 296 297 297
303 303 302 302 302 303 302 303 303 304 305 307 308 309 310 311 311 311 309 307 303 299 298 297 297 297 297 297 297 298 298 299 299 300 300 300 300 300 300 300 300 300 300 300 300 299 299 297 296 294 294 294 295 296 296 296 296 295 295 295 294 294 294 293 293 294 294 294 294 294 294 294 294 295 295 295 295 295 295 296 296 296 296 296 296
302 302 302 302 302 302 302 302 302 302 302 303 304 305 307 308 309 308 308 306 303 300 298 297 297 297 297 297 297 297 298 299 299 299 300 300 300 300 300 300 300 300 300 300 300 299 299 298 297 295 294 294 295 296 296 296 296 295 295 295 294 294 293 293 293 293 293 293 293 294 294 294 294 294 294 294 295 295 295 295 295 295 296 296 296
302 302 302 302 302 301 301 301 301 301 301 301 301 302 303 305 306 307 306 304 303 301 298 297 296 296 296 296 296 297 297 298 298 299 299 299 300 300 299 300 300 300 300 299 299 299 299 298 298 297 295 295 295 296 296 296 295 295 295 294 294 294 293 293 293 293 293 293 293 293 294 294 294 294 294 294 294 294 294 295 295 295 295 295 296
301 301 301 301 301 301 301 301 301 301 301 300 300 300 301 302 303 305 305 304 302 300 299 297 296 296 296 296 296 296 296 297 297 298 298 299 299 299 299 299 299 299 299 299 299 299 299 299 298 298 296 295 295 295 296 296 295 295 294 294 294 294 293 293 293 293 293 293 293 293 293 293 294 294 294 294 294 294 294 294 295 295 295 295 295
300 300 300 300 301 301 301 301 301 301 301 300 300 300 299 299 300 302 302 303 302 300 299 298 297 296 296 296 296 296 296 296 296 297 297 298 298 299 299 299 299 299 299 299 299 299 298 299 299 298 297 297 296 296 296 296 295 294 294 294 294 293 293 293 293 293 292 293 293 293 293 293 294 294 294 294 294 294 294 294 295 295 295 295 295
300 299 299 299 299 299 300 300 300 301 301 301 300 300 299 298 299 299 300 300 301 300 300 299 298 297 296 296 296 296 296 296 296 296 297 297 298 298 298 298 298 299 299 299 298 298 298 298 298 298 298 298 297 297 296 296 296 294 294 294 293 293 292 292 292 292 292 292 293 293 293 294 294 294 294 294 294 294 295 294 294 295 295 295 295
301 301 300 299 299 298 298 299 299 300 300 300 301 300 300 299 298 298 298 298 299 299 299 299 298 297 296 295 295 295 295 296 296 296 296 296 297 297 298 298 298 298 298 298 298 298 298 298 298 298 298 298 298 298 297 297 296 294 294 294 293 293 292 292 292 292 292 292 293 293 294 294 294 294 295 295 295 295 294 294 294 294 294 294 294
301 301 301 301 300 299 299 298 298 299 299 300 300 300 300 300 299 298 298 298 298 298 298 298 298 297 297 296 295 295 295 296 296 296 296 296 296 297 297 298 298 298 297 297 298 298 298 298 298 298 298 298 298 298 297 297 296 295 294 294 293 293 292 292 292 292 292 293 293 294 294 294 295 295 295 295 295 295 294 294 294 294 294 294 294
300 300 301 301 301 300 300 300 299 299 299 299 299 299 300 300 299 299 298 298 297 297 297 297 297 297 297 296 296 295 295 295 296 296 296 296 296 296 297 297 297 298 298 297 297 298 298 298 298 298 298 298 298 297 297 297 296 295 294 294 293 292 292 292 291 292 292 293 293 294 294 295 295 295 295 295 295 295 294 294 294 294 294 294 294
299 299 300 300 300 300 301 300 300 300 300 300 299 299 299 299 299 299 299 298 298 297 297 297 297 296 296 296 296 295 295 295 295 296 296 296 296 296 296 297 297 297 298 298 298 298 298 298 298 298 298 298 297 297 297 297 297 295 294 293 293 292 291 291 291 292 292 293 293 294 294 295 296 296 296 296 295 295 294 294 293 293 293 293 293
297 297 298 298 299 299 300 300 300 300 300 300 300 300 299 299 298 298 298 298 297 298 297 297 297 296 296 296 296 296 295 295 295 295 295 296 296 296 296 297 297 297 297 298 298 298 298 298 298 298 297 297 297 297 297 297 296 296 294 293 293 292 291 291 291 292 292 293 293 294 294 295 296 296 296 296 296 295 294 293 293 293 293 293 293
294 295 295 296 297 298 298 299 299 300 300 300 300 300 299 299 299 298 298 297 297 297 297 297 297 296 296 296 296 295 295 295 295 295 295 295 295 296 296 296 297 297 297 297 297 297 297 297 297 297 297 297 297 297 297 296 296 296 295 293 292 292 291 291 291 291 292 293 293 293 294 295 295 296 296 296 296 295 294 293 292 292 292 292 292
290 291 292 293 294 295 296 297 298 298 299 299 300 300 300 300 299 298 298 297 296 296 296 296 296 296 296 296 296 295 295 295 295 295 295 295 295 295 295 296 297 297 297 297 297 297 297 297 297 297 297 297 297 297 296 296 296 296 295 294 292 292 292 291 291 291 292 292 293 293 294 294 295 296 296 296 296 295 294 293 292 292 292 292 292
288 288 289 289 290 291 292 293 295 296 297 298 299 299 299 300 300 299 298 297 297 296 296 296 296 296 296 296 296 296 295 295 295 295 295 295 294 294 294 295 296 296 296 297 297 296 296 296 296 296 296 296 296 296 296 296 296 296 296 295 293 292 292 291 291 291 292 292 292 293 293 294 294 295 295 295 295 295 294 293 292 292 291 291 292
287 287 287 288 288 289 289 290 291 292 294 295 297 297 298 298 299 299 298 298 297 296 296 296 295 295 295 295 295 295 295 295 295 295 294 295 294 294 294 294 294 294 295 295 296 296 296 296 296 296 296 296 296 296 296 296 296 295 295 295 294 293 292 291 291 291 291 292 292 293 293 293 294 294 295 295 295 294 293 292 291 291 291 291 291
287 287 287 287 287 287 288 288 288 289 290 291 293 294 295 296 296 297 297 297 296 296 296 295 295 295 295 295 295 294 294 295 296 295 294 294 294 294 294 294 293 293 294 294 295 295 295 295 296 296 296 296 296 296 296 296 296 295 295 294 294 293 292 291 291 291 291 291 292 292 292 293 293 294 294 294 294 294 293 292 291 291 290 290 290
287 287 287 287 286 286 287 287 287 288 288 288 289 290 292 293 294 295 296 296 295 295 295 295 295 295 295 295 295 294 294 294 295 295 294 294 294 294 294 294 294 293 293 293 294 294 295 295 295 295 295 295 295 295 296 296 296 296 295 294 294 293 292 291 291 291 291 291 291 291 292 292 293 293 293 293 293 293 292 291 291 290 290 290 290
287 287 287 287 287 287 286 286 286 287 287 287 287 287 288 289 291 293 294 295 296 295 295 295 295 295 295 295 295 294 293 294 294 294 294 294 294 294 294 294 293 293 293 293 293 293 294 294 295 295 295 295 295 295 295 295 295 295 295 294 293 293 292 291 291 291 290 290 291 291 291 292 292 293 293 293 292 292 292 291 290 290 289 289 289
287 287 287 287 287 287 287 287 286 286 286 287 287 287 287 287 287 289 290 292 294 295 296 296 295 295 295 295 294 294 294 294 294 293 293 293 294 294 294 293 293 292 292 292 292 292 293 293 294 294 294 295 295 295 295 295 295 295 295 294 294 294 293 292 291 291 290 290 291 291 291 291 292 292 292 292 292 292 292 291 290 289 289 289 289
286 286 287 287 287 287 287 287 287 286 286 286 286 286 286 286 286 286 287 288 289 291 293 295 296 296 296 295 295 294 294 294 293 293 293 293 293 293 294 294 293 292 292 292 292 292 292 293 293 293 294 294 294 294 294 294 294 294 294 294 294 294 294 293 292 291 290 290 290 291 291 291 292 292 292 292 292 292 292 291 290 289 289 288 288
286 286 286 286 286 286 287 286 287 286 286 286 286 286 286 286 286 286 286 286 287 287 289 290 292 294 296 296 296 295 294 294 293 293 292 292 292 292 293 293 293 293 292 291 291 291 291 292 292 292 293 293 293 293 293 293 294 294 294 294 294 294 294 293 292 291 291 290 290 290 291 291 291 292 292 292 292 292 291 291 290 289 288 288 288
286 286 286 286 286 286 286 286 286 286 286 286 286 286 286 286 286 286 286 286 286 286 286 287 288 290 292 294 296 296 295 295 294 293 292 292 292 292 292 292 292 293 293 292 291 290 291 291 291 292 292 292 293 293 293 294 294 294 294 294 294 294 293 292 292 291 290 290 290 290 290 291 291 291 291 291 291 291 291 290 289 288 288 288 288
286 286 286 286 286 286 286 286 286 286 286 286 286 286 286 286 286 286 285 285 285 285 286 286 286 286 287 289 291 294 295 296 295 293 292 292 292 291 291 291 291 292 292 292 292 291 290 290 291 291 291 291 292 293 293 293 293 293 294 294 294 294 293 293 292 292 291 290 290 290 290 290 290 290 291 291 290 290 290 290 288 288 288 288 287
285 285 285 285 285 285 285 285 285 286 286 286 286 286 286 286 286 286 286 286 285 285 285 285 286 286 286 286 287 289 292 294 295 294 293 293 292 291 291 290 291 291 291 292 292 292 291 290 290 290 291 291 291 292 292 293 293 293 293 294 294 294 294 293 293 293 293 292 291 290 290 290 290 290 290 290 290 290 289 289 288 287 287 287 287
285 285 285 285 285 285 285 285 285 285 285 286 286 285 286 286 286 286 286 286 286 285 285 285 285 285 285 285 286 286 288 290 292 294 294 293 291 290 290 290 290 290 291 291 291 292 291 291 290 290 290 290 290 291 291 292 292 293 293 293 294 293 293 293 294 294 294 293 292 290 290 290 290 290 290 290 290 289 289 288 287 287 287 287 287
283 284 284 284 284 284 284 284 284 284 284 285 285 285 285 285 286 286 285 286 286 286 285 285 285 285 285 285 285 286 286 286 288 290 292 293 292 290 290 290 290 291 291 290 290 290 291 291 291 290 290 290 290 290 290 291 292 292 293 293 294 294 294 294 294 293 293 293 292 291 290 290 289 289 289 290 289 289 288 287 287 286 286 286 286
281 282 282 283 283 283 283 283 283 283 284 284 284 284 285 285 285 285 285 285 285 285 285 285 285 285 285 285 285 285 285 285 286 287 288 290 292 291 290 290 290 291 290 290 290 290 290 290 290 291 290 290 289 290 290 290 291 291 292 293 293 294 294 294 293 292 291 292 292 292 290 289 289 289 289 289 289 288 288 287 286 286 286 285 286
280 280 281 282 282 282 283 283 283 283 284 284 284 284 284 284 284 284 284 284 285 285 285 285 285 285 285 285 285 285 285 285 285 285 285 287 290 291 291 290 290 290 291 291 291 291 290 290 290 291 291 290 289 289 289 289 290 290 290 291 292 292 292 292 291 290 290 290 291 291 290 289 289 289 289 289 288 288 288 288 287 286 285 285 285
278 279 279 280 280 281 281 282 282 282 283 284 284 284 284 284 283 283 283 283 283 283 284 285 285 285 285 285 285 285 285 285 285 285 285 285 287 289 291 290 290 289 291 292 291 290 290 290 290 290 291 290 290 289 289 289 289 289 289 290 290 291 291 290 290 289 289 289 290 291 290 289 288 288 288 288 288 288 288 288 286 285 285 285 285
276 277 277 277 278 278 278 279 279 279 281 282 283 283 284 284 284 283 282 282 282 282 283 284 284 285 285 285 285 285 285 285 285 285 285 285 285 287 289 290 289 289 291 292 291 290 289 289 289 289 289 289 289 289 289 289 289 289 289 289 290 290 290 290 290 289 289 288 290 291 290 288 287 287 288 288 288 288 288 287 285 285 285 285 285
274 275 275 274 275 276 276 276 276 276 277 278 279 280 280 281 282 282 281 280 281 281 282 283 283 284 284 285 285 285 285 285 285 285 285 285 285 285 287 290 289 290 291 291 289 289 289 289 289 289 288 288 288 288 288 288 288 288 289 289 289 289 290 290 289 289 288 288 288 289 289 288 288 287 287 287 287 286 286 285 284 285 285 285 285
Wind_Speed
33 32 30 28 26 24 25 26 27 26 24 24 24 23 23 22 21 21 20 19 18 17 16 15 14 12 11 9 8 8 7 6 6 6 5 6 7 7 8 8 8 8 8 8 8 7 6 5 4 2 2 2 1 1 4 3 4 2 1 1 0 0 1 1 1 2 4 5 5 5 4 4 4 4 5 4 5 5 5 5 6 6 6 5 5
33 32 30 28 27 26 27 27 28 28 26 25 25 25 23 23 23 23 21 20 20 19 17 17 15 13 12 11 10 8 7 7 6 6 6 5 6 7 7 8 9 9 8 9 8 7 7 7 6 4 3 3 1 2 5 3 4 2 1 1 1 0 0 1 1 2 4 4 5 5 4 5 6 6 5 5 6 6 6 6 7 7 7 6 6
34 33 31 29 28 28 28 28 29 30 28 26 26 25 24 24 25 24 22 21 21 21 19 18 16 15 14 12 11 10 8 8 7 7 6 6 6 7 7 8 9 9 9 9 9 9 10 9 8 6 5 5 3 2 5 4 3 1 1 2 1 0 0 1 1 2 3 3 4 4 4 5 6 6 6 7 7 7 7 7 7 7 7 6 6
35 34 33 30 29 29 29 30 30 30 29 27 26 26 25 26 26 25 23 23 23 22 21 20 18 17 15 14 12 11 10 9 8 8 7 7 7 7 7 8 9 9 9 9 9 9 9 8 8 7 7 7 6 4 5 4 3 2 1 1 1 1 1 2 2 2 3 3 3 4 4 4 5 5 6 7 7 8 7 7 7 7 7 6 6
36 35 33 30 30 31 31 30 30 30 30 28 27 26 27 28 28 27 26 25 24 24 23 21 20 18 17 15 14 13 11 10 9 9 8 8 7 7 7 8 9 9 10 10 9 8 7 7 8 9 10 11 9 6 5 5 4 3 2 2 1 1 2 2 3 3 3 3 3 4 4 4 4 5 6 7 7 8 7 7 7 6 6 7 6
37 36 33 31 32 33 33 32 32 31 31 30 28 27 28 29 29 29 28 27 26 25 24 23 22 20 18 17 16 14 13 12 11 10 9 9 8 8 8 8 9 10 10 10 9 8 8 8 10 11 11 11 12 9 6 5 4 3 2 2 2 2 2 3 3 3 3 4 4 4 4 4 4 4 5 6 6 7 7 7 7 7 7 7 7
38 37 35 33 33 35 35 34 33 33 32 31 30 29 29 31 31 30 29 28 27 26 26 25 23 22 20 19 18 16 15 14 12 11 10 10 9 9 9 9 9 10 11 10 9 8 9 9 10 11 10 9 11 10 7 5 5 4 3 3 2 2 2 2 3 3 3 4 4 4 5 5 5 5 5 5 6 7 7 7 7 7 6 6 6
38 38 37 35 35 36 36 35 35 34 33 32 32 31 31 32 32 31 30 29 29 28 27 27 26 24 22 21 20 18 17 15 13 12 11 11 11 10 10 9 9 12 12 11 11 10 9 10 10 11 10 9 11 11 9 7 5 5 4 4 3 3 3 3 3 3 4 4 5 6 6 6 6 7 7 6 6 6 5 5 5 5 5 5 6
37 38 38 37 37 37 37 36 36 36 35 34 34 34 33 33 33 33 32 31 30 29 29 29 28 26 24 23 22 20 19 17 15 14 13 13 12 11 11 10 11 13 12 11 12 11 10 10 10 11 11 12 13 13 11 8 6 6 6 5 4 4 4 4 4 3 5 6 7 8 8 8 9 9 8 8 6 5 5 5 5 6 6 6 6
36 37 38 38 38 38 38 37 37 37 36 35 35 35 35 34 34 34 34 33 32 31 31 30 29 28 26 25 23 22 21 20 18 16 15 15 14 12 12 12 13 13 13 13 13 12 11 11 11 11 12 13 12 13 12 10 8 8 7 6 6 6 6 7 7 6 7 8 9 9 9 9 10 10 9 9 8 7 7 7 7 7 7 7 7
33 35 37 38 38 38 38 38 38 38 38 37 37 36 36 36 35 35 35 35 34 33 32 31 31 29 27 27 25 25 24 22 20 19 18 17 15 14 14 14 14 14 15 15 13 13 13 12 11 11 12 12 12 12 12 12 12 10 9 8 8 7 7 9 9 9 9 10 10 10 10 10 10 11 11 10 9 8 8 8 9 8 8 8 8
30 33 35 36 37 37 38 38 39 39 39 39 39 37 37 37 37 36 36 36 35 35 34 33 32 30 29 28 27 26 26 24 23 21 21 19 16 16 16 15 15 15 16 16 15 14 14 13 12 12 12 12 13 13 13 14 14 13 10 10 10 8 8 10 9 8 8 9 10 10 10 10 11 12 11 10 9 9 9 10 10 10 10 10 10
28 30 32 34 35 36 37 38 39 40 40 40 40 38 37 37 37 36 37 38 38 37 37 35 34 32 31 30 29 28 27 26 25 24 23 20 18 19 18 17 16 16 16 16 15 15 15 15 13 13 12 13 14 13 14 15 15 15 13 13 12 10 9 10 9 9 8 8 10 10 10 10 11 11 10 9 9 9 9 10 10 10 10 11 11
24 25 29 31 33 34 36 37 38 39 39 39 40 39 38 38 37 37 38 39 39 39 39 38 36 35 32 30 29 29 29 28 26 26 25 22 20 21 20 18 17 17 17 17 17 17 16 16 14 13 13 14 14 13 14 15 15 16 15 16 16 13 10 10 12 13 11 10 10 10 10 10 10 10 9 9 9 9 9 10 10 10 11 11 12
21 22 25 27 29 31 33 35 37 39 38 38 39 40 39 39 39 38 38 39 39 39 40 40 38 35 31 29 28 27 27 28 29 28 27 24 23 24 22 20 19 18 18 18 18 18 17 16 15 14 15 15 14 14 15 15 15 15 17 21 21 17 14 14 16 17 15 12 11 10 10 10 10 10 9 9 9 9 9 10 10 11 11 12 12
19 19 20 22 24 26 29 32 35 37 37 37 39 39 39 40 40 39 39 40 40 40 41 40 39 36 32 28 24 21 23 27 29 29 27 26 26 26 24 22 21 20 19 19 19 19 18 16 15 15 16 15 14 15 15 15 15 16 18 22 24 23 22 21 21 20 17 14 12 11 12 11 11 10 9 10 9 9 10 10 11 11 12 12 13
13 13 14 16 18 21 24 27 31 33 35 36 37 38 38 39 40 41 41 41 41 42 42 41 41 40 36 30 22 20 24 27 25 25 26 27 27 27 26 24 22 21 20 20 20 19 18 17 16 16 16 16 16 15 16 16 16 16 17 20 22 23 24 24 22 21 18 15 13 13 13 12 11 10 10 10 10 10 11 11 11 12 12 13 13
10 10 10 10 12 15 19 23 27 30 32 34 35 36 37 39 40 41 42 41 41 42 43 43 42 41 40 37 32 27 27 25 22 21 22 25 26 26 27 25 23 22 21 21 21 20 19 18 18 18 18 18 17 16 17 16 15 16 17 18 20 22 23 23 22 20 18 15 14 14 14 13 12 11 10 11 10 10 12 12 12 12 13 13 13
8 8 8 8 9 10 13 18 23 27 29 31 33 34 36 37 39 40 41 41 42 44 45 44 44 43 42 42 40 36 32 28 25 22 19 21 23 24 25 24 23 22 22 22 22 21 20 20 20 19 20 20 19 18 18 17 16 16 17 18 19 20 21 21 21 19 17 15 14 14 14 13 12 11 10 10 10 10 11 12 11 12 12 12 13
7 7 7 7 7 7 9 12 17 21 26 29 31 32 33 36 38 39 40 41 43 44 45 45 46 46 44 43 42 41 38 35 32 28 23 21 21 21 22 23 23 23 23 23 22 22 22 21 22 22 22 22 22 20 19 19 19 18 18 19 19 20 20 20 20 19 17 15 14 14 14 12 11 10 10 10 10 10 11 11 11 11 11 12 12
9 8 7 7 7 7 7 8 11 14 19 24 27 29 31 34 37 39 40 41 43 44 45 46 47 47 45 44 43 42 40 36 34 32 30 26 24 24 24 23 24 24 23 24 23 23 23 23 24 25 25 25 24 22 20 20 20 19 19 19 19 19 20 20 19 18 17 15 14 14 13 12 10 10 10 9 10 10 10 11 11 11 12 12 13
12 10 9 8 8 7 7 7 8 10 13 17 22 25 29 32 35 38 40 41 42 43 45 46 47 47 46 45 45 44 42 39 36 35 34 32 29 28 27 26 26 25 23 24 25 24 24 24 26 27 27 27 26 24 22 21 21 20 20 20 19 19 19 19 19 18 16 15 14 14 13 12 11 10 10 10 10 10 11 11 12 12 13 13 13
16 15 13 11 10 9 9 8 8 9 11 13 16 20 24 28 32 36 38 40 41 41 43 45 46 47 47 47 47 47 46 44 42 40 39 37 33 31 31 29 28 26 23 23 24 24 25 26 27 28 29 29 28 25 23 22 21 20 20 20 20 19 19 19 19 18 16 15 15 14 13 13 12 11 11 11 11 11 12 13 13 13 13 14 14
15 17 18 16 14 11 11 11 10 9 9 11 12 15 18 23 28 33 37 39 40 40 42 44 46 48 48 48 48 48 48 48 46 44 43 41 38 35 33 30 29 27 25 25 25 25 25 26 27 28 29 30 29 27 25 23 21 21 20 20 20 20 19 19 19 18 16 16 16 15 14 13 13 12 12 12 12 13 13 14 15 15 14 14 14
11 13 16 19 18 16 14 14 14 13 12 11 11 12 15 18 23 28 33 37 39 41 42 43 45 47 48 49 49 49 48 48 46 45 44 42 40 38 33 31 32 30 27 27 28 27 27 27 27 28 29 30 29 28 26 24 22 22 21 21 20 20 20 20 19 18 17 17 16 15 15 14 14 13 13 13 14 14 15 15 15 16 15 15 14
11 11 11 15 18 19 17 15 15 15 15 14 13 13 13 16 19 23 27 32 36 39 41 42 44 46 47 48 49 50 49 48 47 47 46 44 43 41 36 33 32 31 28 28 30 31 30 29 29 28 29 30 29 28 28 25 23 23 23 22 22 21 21 21 20 19 19 18 17 15 15 15 14 14 14 15 15 15 16 16 16 16 15 15 14
16 14 12 12 14 17 18 17 15 14 15 15 16 15 15 15 17 19 23 27 31 36 39 41 42 44 46 48 49 49 49 48 47 47 48 47 46 45 42 37 33 30 29 30 33 34 32 31 30 29 29 29 29 29 29 27 25 25 24 24 23 23 22 22 22 21 20 19 17 16 16 15 15 15 15 15 15 16 16 16 16 15 15 14 14
17 17 16 15 14 14 16 17 16 14 14 14 15 16 17 17 17 18 20 22 26 32 36 38 41 42 44 46 48 49 48 47 47 47 47 48 47 47 46 43 39 34 31 32 35 36 34 34 33 31 29 29 30 30 30 28 28 27 27 26 25 25 24 24 24 23 22 20 18 17 16 15 15 15 15 15 15 16 16 16 16 15 14 14 13
17 17 17 17 16 15 15 16 16 15 14 14 14 15 16 18 19 19 19 19 22 27 31 35 38 40 42 45 47 49 49 47 46 46 46 47 47 47 48 47 44 41 38 36 38 38 36 36 35 32 30 30 30 31 31 30 29 29 28 28 27 27 26 26 25 25 23 21 20 18 17 16 15 15 15 15 16 16 16 16 15 15 14 14 14
17 18 18 17 17 17 17 16 15 15 15 14 14 14 15 17 18 20 20 19 21 24 26 30 34 37 41 43 45 48 49 49 48 47 46 46 47 47 48 47 45 45 44 42 42 41 37 36 35 32 31 30 30 31 32 31 30 30 30 29 29 29 28 28 27 26 24 23 21 20 19 18 17 16 16 16 16 16 16 16 15 15 14 14 14
18 19 19 19 19 18 18 18 17 16 15 14 14 14 15 16 18 19 19 20 22 23 24 26 29 33 37 41 43 46 47 49 50 50 49 47 47 47 47 47 46 46 46 45 43 42 38 37 36 33 31 30 30 31 31 31 31 31 31 31 30 31 31 30 29 28 26 24 23 21 20 19 17 16 16 16 16 16 16 16 15 15 15 14 14
18 18 19 20 20 20 20 20 20 19 17 16 14 14 14 15 16 18 19 19 21 23 24 25 26 29 33 37 40 43 44 46 48 50 51 50 49 47 46 47 46 44 44 45 44 43 41 39 37 35 32 31 31 31 31 31 31 31 32 32 32 33 34 33 31 29 28 26 25 23 21 20 18 17 16 16 16 17 16 16 16 15 15 15 15
19 19 19 20 20 21 21 21 22 22 21 19 17 16 16 16 16 17 18 19 21 23 23 24 25 26 29 33 36 38 40 43 46 48 50 52 52 51 49 48 47 45 43 44 45 43 41 40 39 36 34 33 33 32 32 32 32 32 33 33 34 35 36 35 34 32 30 29 27 25 23 22 20 18 17 16 17 17 17 17 16 16 16 15 15
21 21 22 21 21 21 21 20 21 21 22 22 21 20 19 18 18 17 17 18 20 22 24 25 25 26 28 31 33 34 36 39 43 45 48 50 51 53 53 53 52 50 47 46 46 44 43 43 42 39 37 36 36 34 33 33 32 33 33 34 35 36 37 38 36 34 32 31 29 28 26 24 22 20 18 17 18 18 18 17 17 16 16 16 15
22 22 22 23 24 24 23 22 22 21 21 22 22 22 22 21 20 19 19 19 21 22 23 25 26 26 28 30 31 31 32 36 40 42 45 47 49 51 53 54 55 55 53 50 48 47 46 45 44 43 42 40 38 37 35 33 33 34 34 34 35 36 38 39 39 36 34 33 32 30 29 27 24 22 20 19 19 18 18 17 17 17 16 16 15
26 25 24 24 24 25 25 26 25 25 23 22 22 22 23 23 23 22 21 21 22 23 23 25 26 27 29 31 32 31 31 34 37 39 41 44 47 49 51 53 55 56 55 54 52 51 49 47 46 46 45 43 40 38 36 35 34 35 35 35 35 36 38 40 40 39 37 36 35 32 30 28 26 23 21 20 20 19 18 18 17 17 17 16 15
32 31 30 29 27 26 26 26 27 28 28 26 25 24 23 23 24 24 24 24 24 25 25 26 27 28 30 31 32 31 31 34 37 37 38 41 43 46 49 51 53 54 54 54 54 53 52 51 50 47 46 43 41 39 38 38 37 36 37 38 37 37 39 41 42 41 40 38 37 34 32 30 28 25 23 21 21 20 19 18 18 18 17 17 16
35 35 36 36 35 33 31 29 28 28 29 29 29 28 26 25 25 26 26 27 27 27 27 27 27 28 30 32 33 32 33 36 37 37 38 39 40 43 47 49 50 51 53 54 54 54 55 55 53 51 49 47 44 42 41 40 39 39 39 39 39 39 41 43 44 44 43 40 38 36 34 32 29 27 25 23 22 21 20 20 19 19 19 18 18
34 35 36 37 38 38 38 36 33 31 30 30 31 31 30 28 28 28 28 29 29 30 30 30 30 29 30 31 33 33 35 36 37 38 38 39 40 42 44 45 47 49 51 52 53 53 54 55 55 53 52 51 48 46 45 42 41 41 41 41 41 41 43 45 46 46 44 42 40 38 36 34 31 29 27 25 23 22 22 21 21 21 20 20 20
36 36 37 37 38 39 40 40 39 38 35 32 31 31 32 31 30 30 30 30 31 32 32 32 32 32 32 32 33 34 35 37 38 38 38 39 41 42 43 43 44 46 49 50 51 52 53 55 56 56 54 53 51 49 47 45 45 46 44 42 41 42 42 43 45 45 45 43 42 40 38 36 34 32 30 27 26 24 23 23 22 22 22 21 21
40 40 40 40 40 41 41 41 42 42 42 40 36 33 32 32 32 32 32 32 32 32 34 34 34 34 35 35 34 35 35 37 37 38 38 38 40 42 43 43 43 44 47 49 50 51 52 53 55 56 54 54 55 54 53 52 52 50 45 42 43 43 41 41 43 45 45 44 43 41 39 37 36 34 32 30 27 26 25 24 24 23 23 22 22
44 45 45 44 44 44 44 44 44 44 45 45 43 40 36 34 33 34 34 33 33 33 34 35 35 35 35 36 36 37 37 37 37 37 37 38 39 41 42 42 43 43 45 47 49 51 51 52 55 56 56 56 58 59 60 59 56 51 46 45 45 43 42 43 45 45 46 45 44 42 41 39 38 36 34 31 29 28 27 26 25 25 24 24 23
47 48 48 48 48 47 48 48 48 48 48 47 47 46 44 41 38 36 36 36 35 35 35 36 36 36 36 36 36 37 38 39 39 38 37 38 39 40 40 41 42 44 45 46 48 51 51 52 54 56 58 59 61 62 62 60 56 52 50 48 46 45 46 47 47 47 47 46 45 43 42 41 39 38 36 33 31 30 28 27 27 27 26 25 24
50 51 52 52 52 51 51 51 51 52 52 51 50 50 49 48 45 42 41 40 39 39 38 38 38 37 36 36 36 36 37 38 39 39 39 39 39 38 38 40 42 45 46 47 48 49 51 53 54 56 59 60 60 61 62 61 58 54 51 49 48 48 49 48 48 47 45 43 44 45 44 42 42 40 38 35 32 31 30 29 29 29 27 26 25
55 55 56 56 56 55 54 54 54 54 55 55 55 54 53 52 51 49 48 46 45 44 42 41 41 40 38 37 36 36 37 37 37 38 40 40 39 38 37 37 40 43 47 49 50 49 50 52 55 57 60 59 58 60 62 61 59 56 54 53 52 51 51 50 48 46 43 41 43 45 45 44 44 43 40 36 34 33 32 31 30 30 28 27 26
57 58 59 59 58 58 57 56 57 57 57 57 57 57 58 56 55 54 53 52 51 50 48 45 44 43 41 40 38 38 37 36 36 37 37 39 39 38 37 38 39 41 44 47 50 52 52 53 55 58 60 58 57 58 59 58 58 58 57 57 55 53 52 50 48 46 45 42 40 42 45 46 45 44 41 38 35 35 33 32 31 30 29 27 26
57 59 59 60 60 59 59 58 58 59 59 59 58 59 60 60 59 57 56 57 56 55 53 51 48 47 44 42 41 41 39 37 36 35 36 36 37 38 39 40 41 41 42 44 48 52 54 56 57 58 58 57 56 56 55 55 57 57 57 56 55 54 52 51 51 51 49 45 41 42 45 45 44 44 42 38 37 36 34 33 32 30 29 28 27
57 58 59 60 60 60 61 60 61 62 62 61 60 60 60 62 62 59 55 55 56 56 56 55 53 51 49 46 45 44 42 40 37 35 34 35 36 38 40 42 43 42 43 45 45 47 50 54 58 58 57 56 56 54 53 54 54 54 53 53 54 53 53 54 54 53 52 49 46 46 46 44 43 42 41 38 38 36 34 33 32 31 30 28 27
56 58 59 60 60 61 62 63 63 65 66 65 63 63 62 62 63 62 58 55 55 56 58 58 57 54 52 51 48 47 45 43 40 36 33 33 36 38 40 42 43 44 46 46 45 44 45 47 52 56 57 56 56 56 55 55 54 52 52 54 56 56 55 55 54 54 53 51 49 47 48 46 43 40 39 38 38 37 34 33 32 31 30 29 27
55 56 57 59 61 62 62 63 63 63 66 69 69 68 66 64 64 65 63 59 56 56 57 58 58 56 55 54 52 49 49 46 43 39 34 32 35 38 40 41 43 46 47 47 46 44 43 42 44 48 52 54 55 55 57 58 57 56 56 57 58 57 57 56 56 54 52 51 50 49 48 47 43 39 38 38 37 36 34 32 32 31 30 29 28
54 55 56 57 59 61 60 61 61 61 64 68 69 69 69 68 66 65 64 61 60 60 60 59 59 57 56 56 54 53 51 49 46 42 37 34 35 37 39 41 44 47 48 46 44 43 42 42 43 45 49 52 53 54 55 57 58 59 59 59 59 59 59 58 57 54 51 51 51 49 47 47 45 41 39 39 37 35 33 33 32 32 30 29 28
Wind_Direction
241 241 239 240 239 235 233 233 234 235 233 230 231 229 225 222 222 224 224 222 223 226 229 230 229 227 227 229 230 234 237 241 246 251 251 246 251 255 257 260 262 265 268 269 269 268 267 254 233 216 167 156 242 120 123 188 224 200 136 98 262 294 346 28 112 176 205 207 206 202 194 182 190 212 221 220 220 226 228 228 226 223 219 212 207
242 243 240 239 239 237 235 235 234 236 235 231 232 233 227 224 225 227 226 223 225 227 229 231 231 229 229 232 233 236 240 244 248 252 254 248 249 251 252 254 256 258 259 258 255 247 240 231 220 202 173 168 173 116 134 202 258 251 172 119 97 189 13 86 134 199 209 199 191 176 165 172 193 207 203 195 199 209 215 219 219 218 216 209 206
242 245 244 240 241 241 239 238 236 237 237 233 233 236 230 226 228 230 228 226 227 229 231 233 233 232 232 234 236 240 243 247 252 255 257 253 251 253 253 253 254 254 253 253 249 242 237 232 219 197 173 170 175 140 144 196 267 297 130 100 80 75 131 133 151 191 186 171 170 155 148 175 196 203 194 187 190 197 205 213 216 218 219 213 211
244 248 247 241 242 244 242 242 241 240 240 237 235 236 232 229 230 231 229 229 229 230 232 234 235 234 234 236 238 241 244 248 252 256 258 257 257 257 258 257 257 257 255 253 251 251 251 248 233 201 172 172 183 181 164 184 204 157 147 120 88 26 112 138 135 159 161 148 153 149 155 180 189 191 188 188 192 196 202 211 217 219 222 222 219
248 250 248 244 244 247 246 245 245 245 243 241 238 235 232 231 232 231 230 230 231 231 233 234 236 236 237 238 240 242 245 248 251 254 257 260 262 262 263 262 262 261 258 255 251 249 242 238 232 204 182 180 181 181 176 180 186 177 176 155 142 96 104 114 113 124 137 137 139 146 165 184 186 186 188 192 191 193 199 204 211 214 218 223 223
249 249 247 246 248 248 248 247 246 247 246 244 242 238 235 234 234 234 233 234 234 234 235 237 238 239 239 240 242 243 246 248 248 251 255 261 266 268 268 269 269 265 262 259 254 245 232 224 225 217 206 192 180 172 173 180 185 185 184 171 162 143 117 110 117 128 146 153 142 143 170 184 187 193 195 194 188 185 189 193 201 208 211 218 222
249 249 248 250 251 250 249 247 247 248 247 247 245 242 238 237 238 238 236 237 237 237 238 239 240 240 241 242 245 245 247 249 249 250 255 261 267 272 276 277 274 268 266 264 259 248 235 227 224 227 227 212 196 186 179 183 189 185 186 178 167 156 140 136 152 159 166 172 172 175 187 196 202 212 211 203 197 193 192 195 204 210 215 222 228
248 249 250 252 253 252 251 248 247 248 248 248 247 244 241 239 239 239 239 239 239 238 238 240 241 242 241 243 246 247 248 251 251 252 255 260 265 271 277 278 269 265 267 264 259 249 236 229 224 224 226 224 222 214 196 185 191 193 189 183 181 176 154 155 165 171 191 202 209 213 215 220 229 235 239 237 228 219 214 219 225 228 232 235 239
248 250 252 253 254 254 252 250 249 248 247 247 247 245 244 241 240 240 240 240 240 239 239 240 241 242 242 243 246 247 250 252 252 254 255 259 264 270 274 272 266 267 268 261 255 249 238 231 225 222 223 224 230 230 218 201 193 192 192 190 185 182 184 191 190 193 221 231 234 241 243 246 252 256 260 264 265 262 259 257 254 249 247 247 251
248 251 252 252 252 253 253 252 250 249 248 248 247 246 244 242 240 240 240 240 240 240 241 242 243 243 243 245 246 247 249 252 252 253 254 258 263 267 269 268 268 270 268 260 254 250 242 235 230 226 228 229 233 237 235 228 213 199 197 196 186 188 207 218 219 220 231 241 245 251 258 260 264 267 269 272 275 276 272 270 266 262 262 262 264
250 250 251 251 251 252 253 252 251 251 250 248 247 246 245 243 240 239 240 240 241 241 241 242 243 243 244 245 245 246 249 252 252 251 253 257 261 263 265 266 269 270 268 263 255 249 244 239 234 230 232 234 237 237 237 238 235 223 205 198 193 197 224 239 240 238 240 249 255 258 261 262 264 268 272 275 278 281 281 282 282 284 287 288 290
252 251 251 251 251 252 252 253 253 252 251 249 248 248 247 246 243 241 240 240 239 239 240 241 241 241 242 243 244 246 250 252 251 250 253 256 257 260 263 265 269 269 266 264 257 250 246 242 236 234 235 235 237 237 236 237 239 235 216 204 204 204 232 255 262 265 268 272 274 270 264 260 262 269 275 281 284 287 288 290 293 296 298 299 300
259 256 253 252 253 253 252 253 253 253 253 252 251 250 250 250 247 243 241 240 239 238 239 239 238 237 237 239 242 244 247 248 249 251 253 254 254 258 263 264 266 267 264 262 258 251 248 246 240 237 238 237 237 237 238 238 238 236 219 207 214 219 233 255 271 286 301 303 294 285 275 267 268 273 278 282 283 286 288 289 292 295 296 296 296
270 265 260 257 256 255 254 254 254 254 254 254 253 251 250 250 248 244 242 241 241 240 240 238 236 237 238 239 239 241 243 245 247 249 250 251 253 257 260 262 264 265 264 261 257 252 249 248 244 240 240 240 240 239 241 241 239 236 223 211 217 226 232 253 275 288 300 303 297 290 283 277 275 277 279 280 280 281 282 284 288 289 289 289 289
278 273 268 264 261 259 257 257 256 256 254 254 253 252 250 250 250 248 245 242 239 240 241 241 239 237 236 238 240 241 243 244 246 248 249 250 252 255 256 259 262 262 261 259 256 252 249 247 244 242 242 242 242 242 242 242 240 237 228 222 228 240 249 262 276 285 292 293 289 283 279 277 276 276 274 273 273 273 275 277 279 280 281 282 282
287 281 275 270 265 262 259 258 258 257 256 254 254 253 252 251 250 250 247 242 239 239 241 242 241 237 232 231 235 239 242 246 247 248 249 249 250 253 255 256 259 259 259 258 255 251 247 245 243 242 244 245 243 244 245 245 243 240 235 233 240 249 258 266 273 279 284 286 281 276 273 271 270 268 266 265 263 263 266 267 268 271 274 275 274
300 293 285 277 270 264 260 259 258 258 257 256 255 255 255 253 251 250 249 246 244 243 242 241 241 241 237 232 230 232 240 246 248 247 248 249 250 252 254 255 256 257 257 256 253 249 246 243 242 241 243 244 243 244 246 246 246 246 244 243 247 252 257 264 270 275 278 278 275 271 268 266 263 260 258 258 256 255 258 261 263 265 267 266 265
312 306 298 287 277 269 262 259 259 259 258 257 257 256 255 254 253 251 250 249 247 243 241 242 242 240 238 238 238 241 245 245 241 241 245 246 248 250 251 251 252 252 253 253 251 247 245 243 242 241 242 243 243 243 245 247 249 250 250 250 252 254 257 261 267 271 273 273 271 269 268 266 262 259 257 257 257 255 257 261 263 264 263 263 262
322 317 311 302 290 277 267 261 259 259 259 259 258 257 256 256 255 253 251 250 247 242 241 243 241 238 238 239 239 241 245 245 240 240 242 245 247 249 249 249 247 247 248 250 250 248 246 244 243 242 242 244 246 246 246 247 247 248 249 250 252 253 255 258 261 265 267 267 266 266 268 269 268 266 263 262 261 259 261 265 267 266 266 266 264
339 333 325 315 305 293 279 268 261 259 259 259 259 259 258 257 256 254 252 249 247 244 244 244 242 240 239 239 237 238 241 243 245 246 247 250 252 251 251 250 246 244 246 249 250 248 247 246 245 244 244 246 250 251 250 247 247 249 250 250 250 251 252 253 254 257 258 258 258 260 263 267 269 269 267 266 265 265 267 270 271 271 270 269 268
345 343 336 328 318 306 293 281 271 264 261 260 260 259 258 257 255 254 251 249 247 245 244 244 244 244 242 239 238 237 236 238 241 244 246 247 248 250 251 250 247 247 249 251 251 249 247 247 246 245 246 248 252 255 253 249 248 250 252 251 250 249 248 248 249 250 250 251 251 253 257 259 260 261 262 264 265 267 271 273 274 274 272 271 272
339 341 338 330 322 314 302 293 285 276 268 263 261 259 257 256 255 255 254 252 249 247 244 244 245 246 244 241 239 236 234 233 234 237 242 244 244 247 250 250 252 255 255 256 257 253 251 250 248 247 247 250 254 257 256 251 249 251 253 253 251 249 247 245 244 244 245 245 246 247 249 250 250 251 256 260 263 268 272 273 274 275 275 274 274
333 333 333 327 320 316 309 299 289 282 278 273 267 263 260 257 255 254 254 253 252 249 246 245 244 245 245 243 241 240 238 238 238 240 242 243 243 244 248 250 253 256 256 257 257 256 254 253 252 251 250 252 255 258 257 252 251 252 253 252 250 248 245 242 241 240 240 240 240 240 242 243 245 248 253 259 263 268 271 273 274 275 275 275 275
328 327 328 325 322 318 312 305 295 283 278 277 275 270 265 260 257 254 253 252 252 251 249 245 243 244 244 244 243 243 243 244 245 246 247 248 247 246 247 248 249 251 251 251 252 253 253 253 253 252 251 252 254 256 256 253 252 253 253 251 249 246 243 240 239 238 236 236 235 236 237 241 244 248 253 258 263 266 269 272 273 273 273 274 274
329 322 320 319 320 321 317 311 304 293 283 275 273 273 271 266 260 256 255 253 253 252 251 249 246 245 245 246 246 245 245 245 245 246 247 248 247 244 243 246 249 251 248 248 251 251 251 250 250 250 250 250 251 253 254 253 251 252 252 251 247 243 240 238 237 236 234 232 232 234 237 242 245 249 253 257 260 263 265 267 269 270 270 270 270
352 338 321 310 311 316 318 316 312 305 295 286 277 272 273 271 267 262 259 256 255 254 254 252 250 247 246 246 247 247 247 247 246 245 245 244 242 241 239 238 244 248 245 244 247 247 248 250 249 247 247 248 249 250 252 252 250 251 251 250 246 241 238 236 235 233 231 229 231 234 238 243 247 250 254 256 258 260 263 264 265 266 267 267 268
10 4 352 330 316 314 315 315 314 310 303 297 289 280 275 273 272 269 265 261 258 257 256 255 252 249 247 246 247 248 248 248 247 246 246 245 244 244 241 235 233 238 240 239 241 243 246 249 248 246 246 246 247 249 250 250 249 249 249 248 244 239 235 233 232 230 228 227 230 234 238 242 246 249 253 255 257 258 260 261 262 263 263 263 263
13 11 8 1 348 333 324 319 317 312 306 301 296 290 283 278 276 273 270 266 262 260 258 257 256 253 250 247 246 247 248 248 249 248 247 247 246 246 244 239 234 234 234 233 236 240 242 244 245 246 246 245 246 247 247 247 246 247 247 246 242 238 234 232 230 227 226 227 230 234 238 241 245 249 252 254 256 257 257 258 258 258 258 256 255
4 3 3 2 359 353 344 336 329 323 317 310 301 295 289 284 281 278 275 272 267 264 262 260 259 257 254 251 248 246 246 246 247 248 248 247 247 245 244 243 240 237 235 233 236 241 242 244 247 247 247 247 246 246 246 244 244 245 245 243 240 236 233 230 228 227 226 228 231 236 240 244 247 251 254 256 256 256 255 255 255 253 251 249 246
353 352 352 351 349 348 347 345 342 336 331 324 314 304 294 288 285 282 281 277 272 268 265 263 261 259 257 255 252 250 247 245 245 246 247 247 246 245 244 244 242 241 240 239 243 247 246 246 249 249 250 252 250 248 246 245 244 243 243 242 239 235 232 230 228 227 227 229 232 236 240 244 248 251 254 256 256 256 255 254 252 250 247 244 241
345 344 343 342 341 340 339 339 339 338 337 334 327 317 305 296 290 287 284 281 277 274 270 267 265 262 260 258 256 253 251 248 246 245 245 245 245 244 243 243 242 242 243 243 245 249 249 249 251 251 252 254 253 250 248 245 244 242 242 241 238 234 231 230 229 227 227 230 232 234 237 241 245 248 250 252 253 254 254 253 251 249 246 243 240
340 338 336 335 334 333 333 332 331 331 331 331 329 324 316 307 300 294 289 285 280 277 275 272 269 266 263 261 259 257 255 252 249 247 245 244 243 242 240 241 241 241 241 242 244 247 250 252 252 252 251 251 251 251 249 246 243 242 241 239 237 235 231 229 229 228 227 230 231 232 235 239 242 244 246 248 250 251 251 251 251 250 248 246 244
342 339 337 334 331 329 328 327 326 325 325 325 324 320 317 314 309 303 297 291 284 281 279 275 272 270 267 265 262 260 258 256 253 250 248 246 244 242 240 239 239 238 238 240 243 246 248 250 250 249 247 247 248 249 248 246 242 241 240 237 235 234 231 229 229 229 227 229 231 231 234 236 237 238 240 243 246 247 247 248 248 249 249 249 247
345 342 339 337 334 332 330 327 324 323 321 321 320 317 314 312 310 307 303 297 291 286 282 278 274 272 271 269 266 264 261 259 257 254 252 250 247 245 243 240 239 239 239 240 243 244 245 246 247 245 243 243 244 246 246 246 243 241 241 238 235 234 231 228 229 230 228 228 231 231 232 233 233 233 235 238 242 243 244 245 246 247 248 248 247
343 340 337 334 332 330 329 329 327 325 322 320 319 318 315 311 306 304 302 298 294 290 286 282 278 274 271 270 269 267 265 262 260 257 255 253 251 249 247 244 243 242 241 240 242 243 244 244 245 245 243 241 242 245 246 246 243 240 240 239 236 234 231 228 228 229 229 229 231 231 230 230 231 231 232 234 238 240 241 244 245 247 248 248 248
335 335 333 332 329 326 325 325 325 325 325 322 320 318 316 313 308 303 298 295 293 291 288 285 282 277 273 270 269 269 267 264 262 260 257 255 253 252 250 248 246 245 243 242 241 243 243 243 243 244 245 244 243 243 243 243 241 239 238 237 236 234 232 230 229 230 229 229 230 230 230 231 231 232 232 234 237 240 241 243 245 248 249 250 251
329 329 329 328 327 326 324 323 321 321 321 321 320 318 316 313 310 305 301 296 292 290 288 286 283 280 276 273 271 270 267 265 263 262 260 258 255 253 252 250 248 247 245 243 242 242 242 242 242 242 242 242 240 239 239 239 239 237 234 233 233 232 231 230 230 230 230 230 230 230 230 231 232 233 234 235 238 240 241 242 244 246 248 249 251
324 324 324 324 323 323 323 322 320 317 315 315 316 316 315 312 309 307 303 300 296 293 289 286 283 280 278 276 273 270 266 264 263 263 261 259 258 255 253 252 250 248 246 245 243 241 241 242 242 240 239 239 238 237 236 237 238 237 235 232 231 230 230 230 230 229 230 230 230 230 231 232 233 235 236 236 239 241 242 243 244 246 246 247 249
317 317 317 318 318 318 317 317 317 316 313 310 309 310 311 311 309 306 304 301 298 296 293 289 286 282 278 276 273 270 267 265 264 263 262 260 259 257 255 253 251 248 246 245 243 240 239 240 240 239 238 238 238 238 237 235 234 235 234 232 231 230 230 231 230 230 229 230 230 230 231 232 233 234 235 236 239 242 243 244 245 245 246 247 249
314 314 313 313 312 312 312 312 312 312 310 308 306 305 304 305 306 305 303 301 299 297 294 292 290 287 283 278 274 270 268 266 265 264 262 260 259 258 256 254 250 248 246 245 243 240 238 237 238 237 236 236 236 236 234 231 229 230 230 231 233 234 233 234 233 231 229 230 230 230 231 232 232 234 235 236 238 241 243 244 245 246 247 249 251
315 313 312 311 310 309 309 308 307 307 306 305 304 302 300 299 300 300 300 299 298 297 295 293 291 289 287 284 280 276 272 269 266 264 262 261 259 257 256 253 250 247 246 245 243 240 237 235 235 235 233 232 233 233 231 230 231 232 233 232 232 234 235 236 235 233 230 230 230 231 231 232 233 234 235 236 238 240 242 243 244 246 248 250 252
314 313 312 310 309 308 307 306 304 303 303 302 302 301 298 296 295 295 295 295 296 295 295 294 292 290 290 288 286 283 280 275 270 266 263 261 259 257 256 254 251 248 245 243 242 240 236 233 233 233 232 230 232 233 234 235 235 234 233 232 232 232 232 232 233 233 231 231 231 232 232 231 232 233 233 235 236 238 240 242 243 245 246 248 250
312 311 310 309 308 307 306 304 303 302 300 300 299 299 298 296 293 292 291 291 291 291 291 292 291 291 291 290 288 287 285 282 277 273 267 262 260 258 256 254 252 250 246 243 241 239 237 234 233 233 232 232 233 234 235 236 235 233 232 233 233 232 231 230 230 231 231 231 231 232 232 230 231 232 233 233 234 236 239 240 241 242 244 246 247
309 308 307 306 305 304 303 302 301 300 299 298 297 296 296 295 294 292 289 288 287 287 287 288 288 289 290 290 289 288 286 285 284 281 276 269 264 261 258 253 251 250 248 245 242 239 236 235 234 232 233 233 233 233 234 234 233 232 232 233 233 233 233 232 232 233 234 233 232 232 231 230 230 231 231 231 232 235 237 237 239 240 242 243 245
307 305 304 303 301 300 299 297 296 296 295 295 295 294 293 292 292 291 289 287 285 284 283 284 284 285 286 287 287 286 285 286 287 286 283 278 272 267 262 258 252 249 247 246 244 242 239 237 236 236 236 235 232 233 235 235 234 232 231 232 232 231 233 235 236 238 238 235 233 233 232 230 229 230 230 229 230 232 235 236 237 239 240 241 243
304 303 302 300 298 297 295 294 293 291 290 290 290 290 291 290 289 288 287 286 285 283 281 281 281 281 283 284 284 284 284 284 285 286 286 284 278 271 267 263 257 252 249 246 244 242 240 238 237 239 239 238 236 237 237 236 236 237 236 235 234 233 235 239 240 240 238 235 234 235 234 231 228 228 228 228 227 230 232 234 236 237 238 240 242
301 301 300 299 298 296 295 293 292 289 287 286 285 285 286 287 287 287 285 284 283 282 280 280 279 279 280 281 282 282 282 282 283 284 286 285 280 274 270 266 261 258 253 248 244 242 240 238 238 239 240 239 240 241 240 240 241 242 242 242 241 240 239 238 236 233 232 231 231 233 234 231 228 227 227 225 225 227 230 231 233 235 236 238 241
299 299 298 298 297 296 295 294 293 291 288 286 285 283 282 282 284 284 283 281 281 280 279 278 278 278 278 279 280 280 280 281 280 281 284 285 280 275 272 269 265 261 257 253 249 246 243 240 239 240 239 239 239 241 242 243 243 241 240 239 238 237 233 230 228 228 228 227 226 229 232 231 227 225 225 224 224 225 228 230 232 233 234 237 239
297 296 296 295 295 294 293 292 291 290 289 288 286 284 282 280 280 280 279 278 277 277 277 277 276 276 276 277 278 279 279 280 279 280 281 282 279 275 272 269 265 263 261 258 254 251 248 245 243 242 241 240 239 239 241 243 243 240 236 234 233 232 228 226 226 226 226 225 224 226 229 229 226 223 222 223 223 224 226 228 229 230 231 234 237
294 294 293 292 292 291 290 289 288 287 286 287 286 284 282 279 277 276 276 276 275 274 274 274 274 274 273 274 275 276 277 278 278 279 279 278 277 274 272 269 264 262 264 262 256 253 251 248 245 244 242 241 239 238 238 240 241 240 237 236 235 232 228 227 228 227 225 226 226 224 224 226 225 220 217 219 222 223 224 225 226 227 229 232 235
293 293 292 291 290 290 288 287 285 283 282 283 283 281 280 278 275 273 273 273 273 272 271 272 272 272 272 272 272 273 274 276 277 278 277 275 273 272 272 268 263 264 268 264 256 254 252 249 246 242 240 238 237 236 236 237 238 238 238 238 238 235 233 230 228 224 222 223 223 220 219 222 223 219 216 217 220 221 220 220 223 225 228 231 234